Location: Paris
(48.6709°N, 2.3750°E)
Time: 06:04:57
(UTC+02:00)

STARS - Visible Passes

Search period start: 28 June 2022 00:00
Search period end: 08 July 2022 00:00
Orbit: 622 x 636 km, 98.2° (Epoch: 27 June)

Date Brightness Start Highest point End Pass type
(mag) Time Alt. Az. Time Alt. Az. Time Alt. Az.
28 Jun ? 00:53:25 10° N 00:57:49 73° WNW 01:00:17 25° SSW visible
28 Jun ? 02:32:12 10° NW 02:33:17 11° NW 02:34:22 10° WNW visible
28 Jun ? 23:38:01 10° NE 23:41:21 21° E 23:43:15 16° SE visible
29 Jun ? 01:13:38 10° N 01:17:52 47° WNW 01:20:35 20° SW visible
29 Jun ? 23:57:40 10° NNE 00:01:36 31° E 00:03:33 22° SE visible
30 Jun ? 01:33:58 10° N 01:37:50 31° WNW 01:40:54 14° WSW visible
01 Jul ? 00:17:31 10° NNE 00:21:48 49° E 00:23:51 27° SSE visible
01 Jul ? 01:54:27 10° NNW 01:57:46 21° WNW 02:01:03 10° WSW visible
02 Jul ? 00:37:32 10° NNE 00:41:56 78° ESE 00:44:09 29° S visible
02 Jul ? 02:15:12 10° NNW 02:17:38 15° WNW 02:20:03 10° W visible
02 Jul ? 23:22:49 10° NE 23:25:17 15° E 23:27:05 12° ESE visible
03 Jul ? 00:57:39 10° N 01:02:01 68° WNW 01:04:26 25° SSW visible
03 Jul ? 23:42:08 10° NE 23:45:34 22° E 23:47:23 17° SE visible
04 Jul ? 01:17:53 10° N 01:22:02 43° WNW 01:24:44 20° SW visible
05 Jul ? 00:01:49 10° NNE 00:05:49 34° E 00:07:39 24° SE visible
05 Jul ? 01:38:13 10° N 01:42:00 29° WNW 01:45:01 14° WSW visible
06 Jul ? 00:21:42 10° NNE 00:26:00 53° E 00:27:56 29° SSE visible
06 Jul ? 01:58:44 10° NNW 02:01:54 20° WNW 02:05:04 10° WSW visible
07 Jul ? 00:41:43 10° NNE 00:46:07 84° ESE 00:48:13 30° S visible
07 Jul ? 02:19:33 10° NNW 02:21:46 14° WNW 02:23:57 10° W visible
07 Jul ? 23:26:49 10° NE 23:29:29 16° E 23:31:09 13° ESE visible
